Find DMSP 6530

NORAD ID: 6275 Int'l Des: 1972-089 Owner: SAMSO Country: US operational
LEOCIRCULARRETROGRADESSO

Current View

Loading 3D Globe...

About DMSP 6530

Description loading...

Upcoming Passes

Passes for default location (London). Set your location on the main map for personalized predictions.

Altitude History

Loading altitude history...

Two-Line Element Set

1 6275U 72089A 26151.44295988 .00000347 00000-0 15044-3 0 9991
2 6275 98.5303 318.4723 0034887 12.2450 347.9573 14.29949164782286
Epoch: May 31, 2026 • Age: 11 hours

Current Status

Altitude 812.8 km
Velocity 7.44 km/s
Sub-Earth Point 42.28°N, 62.85°W
Type other

Most Searched